[[{"header":{"parameterUnit":"m.s-1","parameterCategory":1,"la1":30.2991,"la2":30.254,"lo1":-89.0895,"lo2":-89.0444,"dy":0.0017,"dx":0.0017,"nx":28,"ny":28,"refTime":"2024-07-24T21:00:00:Z","depth":0,"parameterNumber":2,"parameterNumberName":"U-component_of_WINDS"},"data":[0,0,0,0,0,0,0,0,0,0,0,0,0,0,0,0,0,0,0,0,0,0,0,0,0,0,0,0,0,0,0,0,0,0,0,0,0,0,0,0,0,0,0,0,0,0,0,0,0,0,0,0,0,0,0,0,0,0,1.3162,1.3162,0,1.3176,1.3177,1.3177,1.3143,1.3142,1.3141,1.314,1.3157,1.3158,1.316,0,0,0,0,0,0,0,0,0,0,0,0,0,1.3103,1.3104,1.3161,1.3162,1.3162,1.3176,1.3177,1.3177,1.3143,1.3142,1.3141,1.314,1.3156,1.3158,1.316,0,0,0,0,0,0,0,0,0,0,0,0,0,1.3124,1.3105,1.3161,1.3147,1.3146,1.3176,1.3177,1.3177,1.3144,1.3142,1.314,1.3139,1.3156,1.3158,1.316,1.3206,0,0,1.3167,1.3168,0,0,0,0,0,0,0,0,1.3123,1.3126,1.3149,1.3148,1.3147,1.3156,1.3162,1.3187,1.3144,1.3145,1.314,1.3138,1.3158,1.316,1.3166,1.3207,1.3207,1.3167,1.3168,1.3169,1.317,0,0,0,0,0,0,0,1.3122,1.3126,1.3167,1.3149,1.3148,1.3139,1.314,1.3167,1.316,1.3144,1.3142,1.3144,1.3157,1.3164,1.3166,1.3208,1.3167,1.3169,1.317,1.3171,1.3283,1.3284,0,0,0,0,0,0,1.3122,1.3125,1.3167,1.3168,1.3131,1.3142,1.3143,1.3155,1.316,1.3159,1.3145,1.3142,1.3161,1.3164,1.3167,1.3218,1.3169,1.3171,1.3172,1.3281,1.3283,1.3285,0,0,0,0,0,0,1.3121,1.3126,1.3166,1.3146,1.315,1.3144,1.3158,1.3156,1.3163,1.3161,1.3159,1.3154,1.316,1.3164,1.3195,1.3218,1.3172,1.3174,1.3279,1.3282,1.3284,1.3323,0,0,0,0,0,0,1.3119,1.3126,1.3144,1.3146,1.3151,1.3195,1.3159,1.3157,1.3167,1.3163,1.3168,1.3168,1.3159,1.3192,1.3198,1.3221,1.3176,1.3277,1.328,1.3283,1.332,1.3326,1.3332,0,0,0,0,0,1.3117,1.3155,1.3145,1.315,1.3173,1.3197,1.3199,1.3189,1.3169,1.3186,1.3184,1.3167,1.3215,1.3196,1.3202,1.3225,1.3275,1.3279,1.3283,1.3317,1.3325,1.3332,0,0,0,0,0,0,1.3157,1.3156,1.3144,1.3184,1.319,1.3191,1.3213,1.3198,1.3211,1.3207,1.3194,1.3195,1.3229,1.3231,1.3209,1.3268,1.3242,1.3247,1.3266,1.3274,1.328,1.3278,1.3178,0,0,0,0,0,1.317,1.3189,1.3187,1.3222,1.3226,1.3219,1.3229,1.3219,1.3226,1.3229,1.3229,1.3236,1.3252,1.3263,1.3279,1.332,1.3319,1.3339,1.3345,1.3351,1.3355,1.3373,1.3381,1.3297,1.3297,1.3297,0,0,1.3198,1.32,1.3213,1.323,1.3234,1.3253,1.3222,1.3244,1.3257,1.3232,1.3261,1.3262,1.3268,1.3304,1.332,1.3307,1.3378,1.3355,1.336,1.3361,1.3378,1.3386,1.3393,1.33,1.3299,1.3299,0,0,1.3258,1.3262,1.329,1.3294,1.33,1.3294,1.3301,1.3303,1.3302,1.3331,1.3311,1.3327,1.3356,1.3361,1.3367,1.3425,1.3409,1.3431,1.3464,1.3482,1.3489,1.3494,1.3512,1.3519,1.3435,1.3435,1.3435,0,1.3292,1.332,1.3307,1.3329,1.3336,1.3313,1.334,1.3345,1.3356,1.3361,1.3346,1.338,1.3383,1.3418,1.3432,1.3439,1.3444,1.3429,1.3489,1.3494,1.3499,1.3516,1.3524,1.3437,1.3437,1.3437,1.3437,0,1.336,1.3379,1.3401,1.341,1.342,1.3445,1.3435,1.3446,1.3436,1.3431,1.3459,1.3462,1.3476,1.3484,1.3475,1.3516,1.3507,1.3491,1.3464,1.351,1.3526,1.3532,1.3441,1.344,1.3439,1.3439,0,0,1.3446,1.3445,1.3453,1.3456,1.3459,1.3473,1.3497,1.3509,1.3517,1.3526,1.3543,1.3567,1.355,1.3557,1.3548,1.3565,1.3607,1.3546,1.3545,1.3555,1.365,1.366,1.3668,1.3597,1.3598,1.3599,1.3648,0,1.3503,1.3542,1.3529,1.3568,1.3584,1.3561,1.358,1.3584,1.358,1.3593,1.3589,1.3605,1.3583,1.3587,1.3602,1.3598,1.3625,1.3595,1.3611,1.3612,1.3608,1.3677,1.3689,1.3736,1.3655,1.3656,1.3656,0,1.3575,1.3583,1.3623,1.362,1.3626,1.3644,1.3653,1.3666,1.3669,1.3664,1.3671,1.3657,1.3678,1.3652,1.368,1.3659,1.3665,1.3664,1.3666,1.3665,1.3636,1.3676,1.3751,1.3757,1.3666,1.3666,1.3665,0,1.363,1.3652,1.3677,1.368,1.3679,1.3691,1.3691,1.3692,1.3699,1.3707,1.3711,1.3721,1.3727,1.3735,1.3724,1.3706,1.3752,1.3726,1.3748,1.3748,1.3757,1.3757,1.3831,1.3765,1.3765,1.3765,1.3765,0,1.3694,1.3719,1.3701,1.3717,1.3743,1.3728,1.3754,1.3752,1.3753,1.3766,1.3748,1.3762,1.3747,1.3759,1.3751,1.3773,1.3777,1.3773,1.377,1.3773,1.3773,1.3776,1.3772,1.3767,1.3766,1.3766,1.3766,0,1.376,1.375,1.3775,1.3771,1.377,1.3789,1.3785,1.3799,1.3793,1.381,1.3813,1.3804,1.3817,1.3807,1.382,1.3814,1.3843,1.3837,1.3842,1.3839,1.3861,1.3858,1.3938,1.3947,1.3877,1.3878,1.3878,0,1.38,1.3818,1.3814,1.3822,1.3822,1.3835,1.3841,1.3827,1.3834,1.3836,1.3849,1.386,1.3868,1.3889,1.3883,1.3892,1.3885,1.3912,1.3886,1.3888,1.3882,1.388,1.388,1.3917,1.3918,1.3918,1.3919,0,1.3872,1.3865,1.3874,1.3881,1.3888,1.3894,1.3897,1.3904,1.3889,1.3898,1.391,1.3915,1.3927,1.3937,1.3944,1.3943,1.3928,1.3927,1.3932,1.3935,1.3936,1.3933,1.3854,1.3925,1.3925,1.3924,1.3924,1.3924,1.3925,1.3938,1.3936,1.3946,1.3947,1.395,1.3961,1.3956,1.3965,1.3972,1.3964,1.3977,1.3977,1.3984,1.3985,1.3995,1.3984,1.3992,1.3994,1.3995,1.3997,1.3936,1.3997,1.3997,1.3996,1.3996,1.3996,0,1.3993,1.399,1.3999,1.4003,1.4011,1.3995,1.3997,1.4004,1.4016,1.4017,1.4024,1.4036,1.4045,1.4039,1.4047,1.4056,1.4049,1.4058,1.4056,1.4056,1.4008,1.4002,1.4063,1.4063,1.4063,1.4063,1.4063,1.4063,1.4029,1.405,1.4043,1.4063,1.406,1.4072,1.4074,1.4076,1.4076,1.409,1.4097,1.4092,1.409,1.4096,1.4103,1.4101,1.4104,1.4115,1.411,1.4066,1.4059,1.4053,1.4047,1.4117,1.4117,1.4156,1.4157,1.4157]},{"header":{"parameterUnit":"m.s-1","parameterCategory":1,"la1":30.2991,"la2":30.254,"lo1":-89.0895,"lo2":-89.0444,"dy":0.0017,"dx":0.0017,"nx":28,"ny":28,"refTime":"2024-07-24T21:00:00:Z","depth":0,"parameterNumber":3,"parameterNumberName":"V-component_of_WINDS"},"data":[0,0,0,0,0,0,0,0,0,0,0,0,0,0,0,0,0,0,0,0,0,0,0,0,0,0,0,0,0,0,0,0,0,0,0,0,0,0,0,0,0,0,0,0,0,0,0,0,0,0,0,0,0,0,0,0,0,0,3.4492,3.4493,0,3.4613,3.4614,3.4615,3.4592,3.459,3.4588,3.4586,3.4703,3.4708,3.4713,0,0,0,0,0,0,0,0,0,0,0,0,0,3.4234,3.4239,3.4492,3.4493,3.4495,3.4612,3.4614,3.4616,3.4592,3.459,3.4587,3.4585,3.4701,3.4707,3.4714,0,0,0,0,0,0,0,0,0,0,0,0,0,3.4349,3.4241,3.4492,3.4498,3.4499,3.4612,3.4614,3.4616,3.4593,3.459,3.4586,3.4583,3.4699,3.4707,3.4714,3.4827,0,0,3.4738,3.4741,0,0,0,0,0,0,0,0,3.4343,3.4359,3.4495,3.4497,3.45,3.4584,3.4566,3.4687,3.4594,3.4557,3.4586,3.4582,3.4666,3.4676,3.4705,3.4832,3.4837,3.4739,3.4743,3.4747,3.4749,0,0,0,0,0,0,0,3.4335,3.4354,3.4539,3.4497,3.45,3.4492,3.4505,3.4589,3.4628,3.456,3.4559,3.4574,3.4666,3.4698,3.4708,3.4839,3.4738,3.4745,3.475,3.4753,3.5062,3.5065,0,0,0,0,0,0,3.4326,3.4347,3.4536,3.4543,3.4412,3.4499,3.4514,3.456,3.4627,3.4634,3.4576,3.4572,3.4687,3.4699,3.4712,3.4847,3.4747,3.4754,3.4758,3.5058,3.5063,3.5067,0,0,0,0,0,0,3.4321,3.4343,3.4531,3.4445,3.4468,3.4507,3.456,3.4564,3.4596,3.4639,3.4645,3.4602,3.4684,3.4701,3.4798,3.4851,3.4757,3.4764,3.5054,3.506,3.5065,3.5118,0,0,0,0,0,0,3.4313,3.4341,3.4386,3.4446,3.4473,3.4617,3.4563,3.4569,3.461,3.4606,3.4665,3.4672,3.4683,3.4787,3.4806,3.486,3.477,3.505,3.5057,3.5063,3.5112,3.5125,3.5136,0,0,0,0,0,3.4304,3.4395,3.4389,3.4411,3.453,3.4621,3.4636,3.4648,3.4615,3.4659,3.4686,3.467,3.4842,3.4797,3.4819,3.4875,3.5046,3.5055,3.5063,3.5107,3.5122,3.5135,0,0,0,0,0,0,3.4339,3.4403,3.4397,3.451,3.456,3.4616,3.4673,3.4665,3.4724,3.4717,3.4729,3.4742,3.4841,3.4868,3.4817,3.4986,3.4939,3.4952,3.4965,3.4981,3.4992,3.4983,3.4777,0,0,0,0,0,3.436,3.443,3.4482,3.4577,3.4603,3.4634,3.4673,3.4679,3.473,3.4751,3.4785,3.4834,3.4899,3.4941,3.5003,3.5116,3.5127,3.5165,3.5177,3.5186,3.5197,3.5256,3.5273,3.5093,3.5093,3.5093,0,0,3.4404,3.4448,3.4491,3.4585,3.4625,3.4695,3.4651,3.4728,3.4779,3.4762,3.4856,3.4883,3.4938,3.5043,3.5091,3.5068,3.5249,3.5197,3.5204,3.5209,3.5266,3.5283,3.5298,3.5099,3.5098,3.5097,0,0,3.452,3.4561,3.4644,3.4685,3.4746,3.4765,3.4785,3.4843,3.486,3.4956,3.4943,3.5003,3.5115,3.5155,3.5189,3.5319,3.5305,3.5338,3.54,3.5458,3.5472,3.5485,3.5529,3.5545,3.5349,3.5349,3.5349,0,3.4566,3.4674,3.4687,3.4765,3.4806,3.4795,3.4878,3.4916,3.4993,3.502,3.4994,3.5134,3.517,3.5283,3.5315,3.5344,3.5365,3.5331,3.5469,3.5482,3.5494,3.5537,3.5553,3.5352,3.5352,3.5352,3.5351,0,3.4726,3.4801,3.486,3.4937,3.4984,3.5064,3.5088,3.5134,3.5135,3.5157,3.5252,3.5296,3.5366,3.5393,3.5394,3.5506,3.549,3.5467,3.5419,3.5514,3.5555,3.5571,3.5357,3.5356,3.5355,3.5354,0,0,3.4867,3.4951,3.4972,3.5006,3.5072,3.5129,3.5207,3.5277,3.5315,3.5368,3.5433,3.5527,3.5506,3.5545,3.5551,3.5602,3.5699,3.5572,3.5573,3.5593,3.5823,3.5839,3.5858,3.5691,3.5694,3.5697,3.5818,0,3.4988,3.5129,3.5143,3.5268,3.5336,3.5326,3.5393,3.544,3.5462,3.552,3.5543,3.561,3.5578,3.5601,3.5651,3.5677,3.5746,3.5669,3.5749,3.5752,3.5735,3.588,3.5897,3.601,3.5834,3.5837,3.5838,0,3.5148,3.5208,3.534,3.5395,3.5424,3.5485,3.555,3.5607,3.5658,3.567,3.5714,3.5712,3.579,3.574,3.5846,3.5794,3.5827,3.5845,3.5849,3.5856,3.58,3.5889,3.6046,3.6062,3.5864,3.5862,3.586,0,3.5236,3.5349,3.5442,3.5472,3.5539,3.5582,3.5611,3.566,3.57,3.5756,3.5782,3.5846,3.588,3.5928,3.5943,3.5906,3.6048,3.6,3.6058,3.6058,3.6088,3.6086,3.6251,3.6112,3.6111,3.6111,3.6111,0,3.5369,3.545,3.5483,3.554,3.5629,3.5644,3.5731,3.5758,3.5801,3.5861,3.5856,3.5912,3.5929,3.5987,3.5999,3.6084,3.6099,3.611,3.6112,3.611,3.6108,3.6131,3.6123,3.6115,3.6114,3.6114,3.6113,0,3.5482,3.5508,3.5608,3.5664,3.568,3.5743,3.5789,3.5843,3.5864,3.594,3.5959,3.5991,3.6059,3.6079,3.6161,3.6168,3.6268,3.6263,3.6252,3.6251,3.6308,3.6302,3.6493,3.6518,3.6363,3.6365,3.6366,0,3.5565,3.5627,3.5689,3.573,3.5762,3.5828,3.587,3.5886,3.593,3.5992,3.6038,3.6106,3.6162,3.6271,3.63,3.6362,3.6358,3.6421,3.6367,3.6363,3.6357,3.6353,3.6358,3.643,3.6432,3.6433,3.6434,0,3.5708,3.5718,3.578,3.5846,3.5897,3.5949,3.5999,3.6032,3.6055,3.6104,3.6175,3.6218,3.6302,3.6369,3.6432,3.6459,3.645,3.6451,3.6468,3.6466,3.6456,3.6461,3.6278,3.6446,3.6445,3.6444,3.6444,3.6443,3.5808,3.5862,3.5914,3.5983,3.6023,3.607,3.6123,3.6151,3.6211,3.6282,3.6287,3.6363,3.6411,3.6495,3.6526,3.6584,3.6565,3.659,3.6596,3.6601,3.6605,3.6448,3.6595,3.6595,3.6595,3.6595,3.6594,0,3.5949,3.5983,3.6046,3.6117,3.6171,3.616,3.6214,3.6259,3.6327,3.6373,3.6428,3.6509,3.6573,3.6608,3.6671,3.6711,3.6708,3.6727,3.6724,3.673,3.6619,3.6598,3.6728,3.6728,3.6728,3.6728,3.6728,3.6728,3.603,3.612,3.6136,3.6245,3.6277,3.6354,3.6386,3.6428,3.6465,3.6556,3.661,3.6633,3.6674,3.674,3.6798,3.6807,3.6829,3.685,3.6856,3.6752,3.6738,3.6725,3.6705,3.6856,3.6856,3.6962,3.6963,3.6964]}]]